Weather reports worldwide

Advertisment
Almeria, Spain (8487): temperature & dewpoint: 14.06.2019 06:00:00 - 20.06.2019 06:00:00 (CEST)Almeria, Spain (8487): wind speed: 14.06.2019 06:00:00 - 20.06.2019 06:00:00 (CEST)Almeria, Spain (8487): wind direction: 14.06.2019 06:00:00 - 20.06.2019 06:00:00 (CEST)Almeria, Spain (8487): reduced air pressure: 14.06.2019 06:00:00 - 20.06.2019 06:00:00 (CEST)Almeria, Spain (8487): visibility: 14.06.2019 06:00:00 - 20.06.2019 06:00:00 (CEST)
Date & Time tt [°C] td [°C] ff [km/h] ff [kn] dd ppp [hPa] vv [km]
20.06.2019 06:00:00 - - - - - - -
20.06.2019 05:00:00 19,2 17,7 8 4 NNE 1011,2 15
20.06.2019 04:00:00 18,9 17,0 8 4 NE 1011,6 -
20.06.2019 03:00:00 19,5 17,8 4 2 NE 1011,8 -
20.06.2019 02:00:00 19,8 17,9 5 3 ENE 1012,5 -
20.06.2019 01:00:00 20,2 18,3 5 3 E 1012,6 -
20.06.2019 00:00:00 20,5 18,4 4 2 S 1012,6 -
19.06.2019 23:00:00 20,7 18,6 9 5 SSW 1012,1 -
19.06.2019 22:00:00 21,0 18,4 8 4 SSE 1011,4 -
19.06.2019 21:00:00 22,3 18,3 9 5 SSE 1011,3 -
19.06.2019 20:00:00 23,2 17,8 11 6 SE 1011,3 35
19.06.2019 19:00:00 23,4 18,3 11 6 ESE 1011,2 -
19.06.2019 18:00:00 23,6 18,0 11 6 S 1012,0 -
19.06.2019 17:00:00 24,2 17,6 16 9 SSW 1012,6 40
19.06.2019 16:00:00 23,9 18,3 15 8 S 1013,4 -
19.06.2019 15:00:00 23,9 18,3 15 8 SSE 1014,0 -
19.06.2019 14:00:00 23,7 18,7 13 7 S 1014,6 35
19.06.2019 13:00:00 23,4 18,3 15 8 SSW 1014,9 -
19.06.2019 12:00:00 22,8 18,8 11 6 S 1014,8 -
19.06.2019 11:00:00 22,2 18,2 11 6 SSE 1014,6 30
19.06.2019 10:00:00 21,5 17,9 9 5 SSE 1014,6 -
19.06.2019 09:00:00 21,5 16,2 5 3 SE 1014,4 -
19.06.2019 08:00:00 19,0 14,9 5 3 ENE 1014,1 30
19.06.2019 07:00:00 17,7 14,4 4 2 SSE 1013,7 -
19.06.2019 06:00:00 18,2 15,8 8 4 NW 1013,8 -
19.06.2019 05:00:00 18,2 15,9 8 4 WNW 1013,6 20
19.06.2019 04:00:00 18,4 16,2 4 2 NNW 1013,9 -
19.06.2019 03:00:00 18,5 16,1 5 3 NE 1014,5 -
19.06.2019 02:00:00 19,3 17,2 2 1 WSW 1014,8 -
19.06.2019 01:00:00 19,8 17,2 8 4 SW 1014,8 -
19.06.2019 00:00:00 20,1 17,3 8 4 SW 1014,6 -
18.06.2019 23:00:00 20,1 17,3 4 2 S 1014,6 -
18.06.2019 22:00:00 20,7 17,5 8 4 S 1014,0 -
18.06.2019 21:00:00 21,5 17,5 11 6 S 1013,9 -
18.06.2019 20:00:00 22,3 17,3 15 8 S 1013,7 45
18.06.2019 19:00:00 23,5 17,4 16 9 S 1013,3 -
18.06.2019 18:00:00 24,2 17,2 13 7 SSW 1013,8 -
18.06.2019 17:00:00 24,2 17,9 13 7 SSW 1014,5 45
18.06.2019 16:00:00 23,1 18,3 15 8 SSW 1015,1 -
18.06.2019 15:00:00 23,5 18,6 18 10 SSW 1015,5 -
18.06.2019 14:00:00 23,0 18,4 18 10 SSW 1015,9 13
18.06.2019 13:00:00 23,4 18,0 13 7 SSW 1016,4 -
18.06.2019 12:00:00 22,7 17,8 11 6 SSW 1016,4 -
18.06.2019 11:00:00 22,3 17,7 13 7 SSW 1016,4 13
18.06.2019 10:00:00 21,7 17,9 11 6 S 1016,3 -
18.06.2019 09:00:00 20,7 18,1 9 5 SW 1016,2 -
18.06.2019 08:00:00 19,3 12,1 0 0 N 1015,5 30
18.06.2019 07:00:00 17,8 14,5 8 4 N 1014,8 -
18.06.2019 06:00:00 18,5 14,7 5 3 N 1014,8 -
18.06.2019 05:00:00 18,6 11,4 4 2 ENE 1014,8 30
18.06.2019 04:00:00 19,0 10,3 4 2 NNW 1014,9 -
18.06.2019 03:00:00 19,1 11,5 8 4 ESE 1015,2 -
18.06.2019 02:00:00 20,7 10,7 11 6 NNW 1015,6 -
18.06.2019 01:00:00 20,3 11,5 4 2 NW 1016,1 -
18.06.2019 00:00:00 21,0 11,9 4 2 N 1016,3 -
17.06.2019 23:00:00 21,2 15,3 2 1 NNE 1015,9 -
17.06.2019 22:00:00 21,4 18,2 2 1 SSW 1015,6 -
17.06.2019 21:00:00 23,2 16,5 2 1 S 1015,3 -
17.06.2019 20:00:00 23,5 17,8 8 4 SSW 1015,5 25
17.06.2019 19:00:00 22,9 18,3 9 5 SSW 1014,9 -
17.06.2019 18:00:00 23,5 18,1 8 4 S 1015,5 -
17.06.2019 17:00:00 23,6 18,1 13 7 S 1016,4 25
17.06.2019 16:00:00 23,3 17,9 13 7 SSW 1016,7 -
17.06.2019 15:00:00 23,5 17,8 11 6 S 1017,1 -
17.06.2019 14:00:00 22,9 17,4 15 8 S 1017,7 25
17.06.2019 13:00:00 22,6 17,3 15 8 SSW 1018,0 -
17.06.2019 12:00:00 22,7 17,2 15 8 SSW 1018,2 -
17.06.2019 11:00:00 22,4 17,3 11 6 S 1018,0 20
17.06.2019 10:00:00 21,7 17,2 11 6 SSW 1018,4 -
17.06.2019 09:00:00 20,9 17,2 11 6 SSW 1018,4 -
17.06.2019 08:00:00 18,4 15,6 0 0 N 1018,2 20
17.06.2019 07:00:00 17,0 14,9 8 4 NW 1017,8 -
17.06.2019 06:00:00 17,4 15,6 8 4 N 1017,6 -
17.06.2019 05:00:00 18,3 16,1 4 2 N 1017,6 20
17.06.2019 04:00:00 19,2 17,3 11 6 SW 1017,9 -
17.06.2019 03:00:00 19,4 17,1 13 7 WSW 1018,4 -
17.06.2019 02:00:00 19,4 16,6 5 3 SSW 1018,8 -
17.06.2019 01:00:00 19,7 16,7 8 4 WSW 1019,0 -
17.06.2019 00:00:00 20,1 17,3 9 5 WSW 1019,2 -
16.06.2019 23:00:00 20,4 17,2 11 6 WSW 1018,8 -
16.06.2019 22:00:00 20,8 18,0 15 8 WSW 1018,0 -
16.06.2019 21:00:00 21,6 18,4 18 10 SW 1017,7 -
16.06.2019 20:00:00 26,8 13,1 9 5 E 1017,1 50
16.06.2019 19:00:00 28,2 13,7 24 13 E 1016,7 -
16.06.2019 18:00:00 28,6 13,4 31 17 E 1016,4 -
16.06.2019 17:00:00 29,1 13,7 34 18 E 1016,2 50
16.06.2019 16:00:00 29,6 9,3 34 18 E 1016,2 -
16.06.2019 15:00:00 30,7 8,5 28 15 E 1017,4 -
16.06.2019 14:00:00 27,6 7,4 28 15 E 1017,9 50
16.06.2019 13:00:00 28,1 7,9 28 15 ENE 1017,6 -
16.06.2019 12:00:00 28,1 7,3 31 17 ENE 1017,5 -
16.06.2019 11:00:00 28,3 6,8 28 15 ENE 1017,6 50
16.06.2019 10:00:00 25,7 8,5 5 3 N 1017,7 -
16.06.2019 09:00:00 22,2 9,7 8 4 NNE 1017,9 -
16.06.2019 08:00:00 20,2 12,6 9 5 ENE 1017,8 50
16.06.2019 07:00:00 18,9 7,9 11 6 NNE 1016,9 -
16.06.2019 06:00:00 17,9 8,7 11 6 N 1016,7 -
16.06.2019 05:00:00 17,4 11,4 4 2 WNW 1016,9 45
16.06.2019 04:00:00 17,7 10,8 11 6 NE 1016,8 -
16.06.2019 03:00:00 18,5 11,6 8 4 N 1016,9 -
16.06.2019 02:00:00 17,7 12,8 4 2 NNE 1017,3 -
16.06.2019 01:00:00 18,4 14,5 5 3 NNW 1018,1 -
16.06.2019 00:00:00 18,7 14,3 4 2 ESE 1018,2 -
15.06.2019 23:00:00 19,3 15,2 9 5 E 1017,3 35
15.06.2019 22:00:00 20,0 16,0 5 3 SSW 1016,6 -
15.06.2019 21:00:00 21,0 16,0 13 7 SSW 1016,6 -
15.06.2019 20:00:00 21,9 16,2 13 7 SSW 1016,1 30
15.06.2019 19:00:00 22,4 15,4 18 10 SW 1016,0 -
15.06.2019 18:00:00 22,9 16,6 16 9 SSW 1016,4 -
15.06.2019 17:00:00 22,8 15,6 18 10 SSW 1016,9 30
15.06.2019 16:00:00 22,7 15,6 18 10 SSW 1017,4 -
15.06.2019 15:00:00 22,6 15,5 16 9 SSW 1017,8 -
15.06.2019 14:00:00 22,6 15,8 15 8 S 1018,2 25
15.06.2019 13:00:00 22,6 16,2 15 8 S 1018,2 -
15.06.2019 12:00:00 22,0 16,1 11 6 S 1017,8 -
15.06.2019 11:00:00 21,3 15,9 11 6 SSE 1017,6 20
15.06.2019 10:00:00 20,4 15,4 9 5 S 1017,5 -
15.06.2019 09:00:00 19,8 14,8 4 2 S 1017,3 -
15.06.2019 08:00:00 17,7 14,2 8 4 NE 1016,8 20
15.06.2019 07:00:00 16,1 13,9 8 4 NNE 1016,4 -
15.06.2019 06:00:00 15,7 13,8 11 6 ENE 1015,7 -
15.06.2019 05:00:00 16,1 13,8 9 5 ENE 1015,4 20
15.06.2019 04:00:00 16,2 13,7 9 5 NE 1015,1 -
15.06.2019 03:00:00 17,0 13,8 4 2 NE 1014,8 -
15.06.2019 02:00:00 18,2 14,9 24 13 WSW 1015,1 -
15.06.2019 01:00:00 18,7 14,8 28 15 SW 1015,3 -
15.06.2019 00:00:00 19,2 14,1 24 13 SW 1014,8 -
14.06.2019 23:00:00 19,8 13,1 22 12 WSW 1014,4 -
14.06.2019 22:00:00 20,7 14,1 29 16 SW 1013,4 -
14.06.2019 21:00:00 21,8 12,4 18 10 WSW 1013,0 -
14.06.2019 20:00:00 22,7 11,7 21 11 W 1012,9 35
14.06.2019 19:00:00 22,8 12,7 35 19 WSW 1012,6 -
14.06.2019 18:00:00 22,9 14,1 28 15 SW 1013,4 -
14.06.2019 17:00:00 23,0 14,6 37 20 SW 1013,3 30
14.06.2019 16:00:00 23,1 15,4 34 18 SW 1013,6 -
14.06.2019 15:00:00 24,2 14,4 39 21 SW 1013,7 -
14.06.2019 14:00:00 24,6 11,9 44 24 SW 1014,0 25
14.06.2019 13:00:00 22,6 13,7 48 26 SW 1013,6 -
14.06.2019 12:00:00 22,3 14,8 41 22 SW 1013,6 -
14.06.2019 11:00:00 22,2 15,7 35 19 SW 1013,6 20
14.06.2019 10:00:00 21,9 16,6 24 13 SW 1013,0 -
14.06.2019 09:00:00 20,8 17,6 24 13 WSW 1012,5 -
14.06.2019 08:00:00 20,0 17,6 29 16 WSW 1011,7 15
14.06.2019 07:00:00 19,8 17,6 26 14 WSW 1011,5 -
14.06.2019 06:00:00 20,1 17,6 26 14 SW 1011,2 -

tt = temperature
td = dewpoint
ff = wind speed
dd = wind direction
ppp = reduced air pressure
vv = visibility

Next stations